Wind_Speed
83 89 90 84 86 83 78 84 83 78 82 81 86 79 73 76 61 66 62 64 62 61 61 63 58 54 53 49 49 43 34 40 32 32 34 31 36 32 28 27 30 30 31 29 27
80 85 90 90 87 93 83 84 85 83 85 86 86 80 83 79 76 68 72 69 67 68 68 68 69 62 57 49 50 50 43 46 47 41 40 36 38 34 33 30 31 29 31 31 29
83 87 85 87 89 92 93 87 90 92 79 87 91 89 82 84 82 75 70 77 75 73 73 71 74 74 63 60 56 53 49 55 47 46 34 41 36 41 39 34 30 29 31 35 32
80 82 86 88 84 88 95 89 92 95 93 88 88 93 90 86 89 83 82 78 75 82 78 81 78 77 75 66 65 56 54 55 55 53 35 45 43 32 34 35 35 30 30 37 35
73 78 81 87 89 91 91 99 91 97 100 96 92 96 97 97 94 87 95 84 82 77 78 81 83 83 79 80 72 62 58 58 63 60 50 49 41 37 38 45 41 35 32 38 39
70 71 77 82 83 92 95 97 96 100 101 104 96 95 98 102 100 95 96 95 92 92 84 84 81 88 82 79 84 77 69 62 67 64 51 50 43 40 41 46 45 41 35 37 41
67 70 73 76 80 84 87 95 103 103 102 108 103 105 102 105 103 104 105 100 102 96 97 93 89 87 87 85 86 84 83 74 69 63 54 59 56 53 58 51 47 46 45 41 40
63 65 66 70 74 78 81 88 91 92 97 104 106 111 113 112 107 109 112 110 108 108 100 101 99 94 85 86 86 85 88 85 68 74 66 62 59 62 62 63 52 53 47 46 39
55 60 63 65 67 71 74 78 83 87 91 95 99 106 112 117 118 120 115 117 115 113 113 107 103 102 100 91 89 89 89 83 74 79 75 74 65 68 64 63 58 57 49 53 47
42 49 55 59 63 67 70 73 75 76 80 84 90 96 102 109 115 121 120 120 123 121 120 119 115 108 108 107 89 84 88 84 77 84 85 85 77 73 70 71 60 64 54 55 52
25 30 34 39 43 48 52 56 60 65 72 76 82 87 92 97 103 113 120 123 127 125 124 128 127 122 107 115 111 97 92 93 87 84 94 91 87 78 79 73 64 67 65 59 55
26 28 31 33 35 38 40 43 45 44 48 54 60 67 77 85 96 105 109 115 123 125 132 132 133 126 123 117 116 116 111 96 91 93 100 100 100 87 81 77 73 71 67 63 63
31 32 32 36 37 38 40 41 42 45 49 52 56 64 70 76 84 92 100 106 112 116 124 131 133 134 132 131 126 119 112 109 97 93 101 106 102 98 87 79 82 75 68 69 68
34 35 36 36 37 38 40 42 44 45 47 51 57 61 67 71 78 85 88 92 99 102 113 120 123 132 134 135 135 129 119 120 112 110 99 103 105 102 90 82 79 80 81 75 72
28 31 32 34 34 36 38 39 42 45 47 52 54 60 64 66 70 78 78 80 83 93 97 96 112 121 128 131 134 133 133 128 121 121 115 110 113 92 93 86 83 85 86 80 83
21 23 25 27 30 32 35 36 38 40 43 47 53 56 61 62 65 72 68 68 71 77 86 87 95 108 115 121 131 132 140 140 134 132 130 115 117 100 91 85 90 92 88 83 91
24 26 28 29 29 31 33 36 36 38 40 45 50 51 57 57 59 62 58 58 60 63 70 78 85 94 103 115 122 133 141 139 143 147 133 119 122 109 91 91 87 95 99 94 93
28 29 30 31 33 35 38 38 39 41 46 49 51 51 54 54 54 56 53 51 50 52 59 70 79 83 91 103 116 126 134 137 141 141 134 130 133 120 104 97 94 98 102 99 95
24 26 28 31 34 37 39 42 44 46 47 49 52 52 55 54 51 50 49 39 43 43 47 56 67 78 83 88 103 116 129 129 137 140 141 137 136 131 124 112 102 101 104 101 98
27 28 30 34 37 38 40 42 44 45 47 50 50 51 55 54 52 48 46 44 35 38 38 46 57 69 80 87 92 103 117 126 132 136 139 135 134 132 131 123 120 109 107 106 106
29 31 32 35 38 40 42 44 43 42 43 46 47 50 52 53 50 50 44 39 38 30 35 36 48 59 67 80 86 95 100 114 126 132 135 131 132 131 136 133 131 125 113 114 111
32 31 32 33 39 42 44 45 44 41 42 42 47 50 49 49 52 49 44 39 37 32 27 32 39 50 57 69 75 87 93 108 119 123 131 128 127 130 131 136 135 134 130 122 121
38 35 33 34 38 42 46 47 48 45 44 45 47 46 46 46 47 50 48 42 37 35 30 25 32 41 48 60 70 79 91 100 113 118 124 129 126 127 127 129 133 142 143 139 131
47 47 42 38 39 40 46 47 47 49 47 48 47 43 44 46 46 48 51 48 42 37 32 28 25 30 41 50 63 71 84 92 102 109 117 127 128 129 131 134 134 137 143 142 144
51 52 49 43 44 40 47 45 48 44 47 50 46 41 43 47 51 48 51 54 48 43 36 34 27 25 31 44 54 61 69 83 91 96 107 114 121 125 130 130 131 134 133 134 140
52 50 54 47 46 45 43 44 50 46 46 49 43 43 45 47 48 50 53 54 54 50 43 34 32 28 31 33 45 50 60 72 85 93 101 105 112 118 124 126 127 131 133 130 133
48 48 51 56 52 47 46 46 47 50 45 48 45 46 46 48 51 52 51 55 56 53 48 40 32 30 34 27 33 47 62 67 76 87 96 101 104 111 118 123 129 132 137 136 138
Wind_Direction
224 224 225 226 222 221 227 228 234 231 232 227 228 227 229 226 231 235 232 223 223 229 233 235 230 233 239 239 241 244 245 252 250 257 252 255 266 267 267 260 249 233 230 232 239
222 225 224 228 230 229 229 230 230 232 235 234 231 231 233 227 231 238 239 232 225 230 232 233 235 229 230 233 241 243 245 249 248 254 259 276 274 263 266 267 255 238 227 228 236
225 224 226 230 231 229 231 231 227 232 229 236 236 231 236 233 232 229 240 240 235 232 229 234 234 234 232 225 232 236 242 242 243 252 267 268 251 264 263 267 264 248 227 229 230
227 228 229 229 231 231 231 233 231 231 233 234 235 235 234 236 235 232 238 237 242 239 239 233 236 233 233 230 230 232 228 240 246 252 257 257 248 261 263 262 261 247 239 235 226
231 231 232 232 232 231 234 233 235 233 236 236 238 237 236 237 236 234 236 237 233 234 241 242 237 238 235 234 230 226 233 238 249 251 253 251 245 260 268 266 266 262 253 239 230
234 234 234 234 235 235 234 236 238 234 236 237 238 236 238 239 240 236 235 236 234 238 235 243 240 241 239 240 236 235 224 233 246 252 246 247 238 256 262 267 269 269 254 251 232
238 239 239 239 240 239 238 239 239 238 239 238 241 239 240 240 240 241 237 239 234 234 234 235 240 242 242 243 240 238 232 232 226 246 245 238 250 262 264 262 266 266 264 252 240
242 244 245 245 244 244 245 244 243 243 244 243 242 242 242 244 244 243 241 242 238 236 234 236 235 236 242 239 241 241 238 236 234 238 235 250 249 258 256 259 262 263 265 255 251
247 247 248 248 249 249 250 250 249 248 248 248 247 246 245 246 246 243 242 241 240 238 236 235 237 234 234 239 240 241 242 240 235 240 240 239 247 253 249 254 257 254 259 257 254
247 249 251 252 252 253 253 253 253 253 253 252 252 250 249 248 249 248 245 242 240 240 236 237 236 235 234 236 237 245 246 245 239 241 243 244 236 241 252 253 252 251 258 257 251
244 243 245 247 249 251 252 255 255 257 256 256 254 254 253 253 253 250 248 247 243 244 241 238 236 235 238 237 237 233 241 245 241 239 244 242 242 237 243 248 244 251 252 253 251
248 249 251 250 250 253 253 253 254 258 259 258 257 256 257 257 256 253 253 251 249 245 243 242 239 238 239 237 237 237 238 239 241 241 242 243 243 237 239 238 243 249 247 253 252
252 254 253 251 253 254 254 253 256 258 256 260 260 259 259 261 261 260 259 256 252 250 246 244 243 240 241 238 236 235 237 234 236 239 240 244 245 242 241 237 244 242 248 248 252
258 258 258 258 259 262 262 260 262 265 268 271 272 271 270 269 272 266 263 261 260 253 249 246 243 242 241 240 240 237 237 234 232 232 239 245 244 247 243 238 239 243 247 251 244
258 259 259 262 264 266 268 268 268 269 269 274 274 276 279 280 282 279 275 266 258 255 252 247 244 242 239 240 240 238 238 235 232 233 233 238 248 244 244 242 240 243 245 245 248
274 273 273 275 277 280 282 281 281 279 277 278 278 281 288 290 289 287 283 276 266 258 254 247 242 240 239 239 238 237 237 235 234 235 234 232 243 244 240 244 244 247 246 243 245
279 278 280 281 283 286 286 285 284 284 281 284 289 294 296 297 299 294 288 280 272 262 255 248 245 240 235 233 233 236 237 236 237 235 236 233 235 239 239 239 238 242 242 241 242
278 282 282 282 282 281 283 284 284 285 288 292 296 303 306 307 306 300 295 292 279 265 255 248 244 240 236 233 231 231 234 237 238 238 238 236 236 235 235 239 237 239 243 246 246
284 285 285 283 281 285 288 288 289 288 289 292 299 307 309 313 312 309 303 300 290 271 257 249 245 243 238 236 230 231 233 234 234 238 236 234 235 234 233 233 237 238 242 241 241
286 283 286 290 291 292 294 297 298 295 293 291 299 308 314 317 318 318 316 312 302 287 264 251 243 240 236 238 230 231 231 233 235 236 236 235 236 234 233 231 234 236 238 240 238
291 288 288 293 298 301 301 305 307 301 296 297 305 313 318 320 323 324 325 321 316 304 280 259 247 241 239 236 233 234 233 236 235 235 236 236 235 235 235 234 232 236 238 240 239
285 292 296 297 300 302 304 306 310 305 302 306 315 320 321 327 327 329 332 332 325 319 304 276 255 246 237 237 231 234 234 230 236 235 236 236 236 235 235 235 234 234 236 237 237
282 285 290 298 302 300 304 307 312 308 308 311 320 323 327 331 336 336 337 337 337 330 322 296 267 259 244 238 234 231 232 231 234 230 234 236 235 233 236 238 236 234 234 234 235
276 285 286 290 297 307 308 308 313 313 311 314 323 325 329 334 336 340 339 338 340 337 328 317 293 275 258 246 240 234 233 234 234 234 233 235 234 233 233 234 237 236 236 234 236
279 282 284 288 294 301 304 308 313 316 313 315 321 322 327 334 337 339 338 338 337 336 335 327 318 292 267 255 247 242 238 238 239 238 237 236 237 236 236 236 237 239 238 237 237
277 280 284 288 293 295 303 309 309 312 315 313 317 319 322 330 334 337 338 338 336 332 334 334 324 309 281 265 260 250 241 236 237 239 239 237 237 237 235 239 239 240 241 240 238
268 275 278 286 290 290 297 302 306 308 314 310 315 317 322 328 332 332 336 336 335 333 331 330 329 313 299 279 265 256 246 238 235 236 237 237 239 239 237 234 236 235 239 239 240
Height
10700 10707 10714 10721 10727 10733 10741 10746 10753 10759 10764 10770 10775 10782 10787 10792 10797 10802 10813 10814 10820 10822 10828 10833 10839 10844 10850 10854 10856 10859 10866 10867 10864 10864 10865 10874 10875 10879 10881 10884 10886 10890 10891 10894 10896
10688 10694 10702 10708 10716 10722 10728 10736 10742 10748 10753 10757 10762 10769 10775 10779 10786 10794 10799 10806 10810 10809 10817 10822 10826 10831 10839 10842 10848 10853 10860 10859 10854 10857 10859 10868 10869 10873 10876 10878 10881 10886 10891 10890 10892
10677 10683 10688 10696 10703 10710 10716 10723 10729 10735 10740 10745 10751 10757 10763 10769 10772 10790 10788 10792 10798 10800 10805 10811 10814 10819 10828 10831 10835 10842 10855 10847 10848 10848 10859 10860 10860 10865 10869 10873 10875 10881 10886 10884 10887
10665 10672 10679 10685 10690 10697 10702 10708 10715 10721 10726 10730 10736 10743 10749 10753 10756 10774 10772 10779 10784 10788 10793 10799 10803 10808 10815 10821 10821 10830 10842 10842 10840 10842 10854 10850 10853 10860 10863 10865 10868 10875 10880 10878 10882
10655 10661 10667 10672 10677 10683 10688 10693 10699 10704 10708 10713 10721 10727 10734 10736 10744 10758 10752 10763 10767 10773 10778 10783 10789 10793 10804 10807 10808 10822 10827 10833 10832 10835 10849 10843 10848 10853 10856 10857 10861 10866 10874 10873 10876
10644 10648 10653 10660 10665 10670 10673 10678 10683 10688 10694 10700 10706 10711 10716 10718 10729 10738 10736 10744 10751 10758 10762 10766 10772 10776 10791 10796 10797 10805 10809 10819 10824 10829 10838 10840 10842 10845 10847 10848 10853 10857 10863 10866 10870
10633 10639 10645 10650 10654 10656 10660 10664 10670 10676 10680 10687 10690 10695 10699 10701 10709 10714 10720 10725 10730 10737 10743 10748 10753 10760 10772 10777 10782 10789 10798 10803 10811 10821 10828 10831 10833 10841 10837 10839 10843 10849 10851 10858 10862
10623 10628 10632 10637 10641 10644 10646 10650 10656 10661 10666 10670 10673 10676 10681 10683 10690 10697 10699 10702 10708 10718 10724 10726 10734 10744 10750 10758 10762 10769 10777 10791 10813 10807 10818 10816 10833 10829 10828 10829 10834 10837 10842 10847 10854
10613 10616 10620 10623 10627 10630 10633 10637 10641 10646 10650 10654 10655 10658 10661 10659 10661 10666 10676 10683 10689 10695 10702 10705 10712 10724 10729 10738 10742 10754 10768 10784 10798 10796 10800 10801 10818 10816 10814 10819 10825 10825 10833 10836 10843
10604 10606 10609 10612 10614 10616 10619 10621 10624 10629 10630 10633 10634 10636 10639 10641 10638 10641 10648 10659 10663 10669 10678 10686 10686 10699 10709 10717 10739 10747 10749 10761 10782 10778 10775 10782 10797 10802 10801 10807 10816 10815 10821 10826 10832
10597 10598 10600 10601 10602 10603 10605 10606 10609 10612 10613 10616 10617 10614 10615 10615 10615 10616 10620 10628 10636 10645 10655 10656 10656 10676 10698 10699 10717 10723 10724 10739 10758 10762 10753 10762 10769 10788 10790 10794 10805 10807 10811 10815 10820
10592 10592 10593 10594 10593 10594 10595 10596 10597 10598 10598 10597 10596 10595 10592 10591 10592 10591 10594 10599 10604 10617 10621 10627 10635 10664 10665 10674 10682 10700 10709 10726 10731 10739 10732 10733 10740 10765 10773 10784 10790 10794 10799 10805 10808
10585 10585 10586 10586 10586 10586 10586 10587 10587 10588 10587 10584 10581 10577 10575 10572 10571 10568 10566 10569 10571 10578 10584 10591 10610 10627 10633 10643 10654 10674 10689 10708 10713 10709 10708 10709 10721 10740 10758 10774 10773 10783 10789 10794 10798
10577 10577 10578 10578 10578 10577 10577 10577 10576 10576 10575 10570 10564 10560 10556 10555 10547 10544 10541 10539 10532 10543 10543 10555 10579 10589 10601 10617 10628 10646 10669 10671 10683 10680 10689 10690 10699 10718 10746 10760 10767 10771 10773 10782 10787
10568 10569 10569 10569 10568 10567 10566 10565 10564 10563 10562 10554 10551 10542 10539 10537 10530 10515 10511 10505 10505 10504 10507 10538 10537 10548 10564 10590 10593 10621 10626 10635 10656 10651 10670 10666 10667 10716 10719 10741 10753 10754 10758 10765 10772
10561 10561 10560 10560 10558 10557 10555 10554 10552 10549 10546 10541 10534 10530 10523 10517 10509 10491 10485 10479 10473 10476 10482 10498 10500 10504 10531 10555 10564 10581 10580 10604 10616 10623 10623 10671 10657 10693 10707 10728 10734 10736 10743 10749 10748
10554 10554 10553 10551 10550 10548 10546 10542 10541 10537 10534 10528 10521 10517 10506 10498 10487 10473 10462 10454 10451 10453 10456 10465 10469 10478 10496 10510 10531 10541 10549 10570 10577 10583 10617 10654 10643 10678 10697 10701 10712 10712 10714 10720 10725
10547 10546 10545 10543 10541 10538 10536 10533 10530 10526 10519 10514 10508 10502 10492 10482 10470 10457 10446 10437 10432 10429 10431 10436 10443 10453 10467 10483 10497 10506 10516 10543 10553 10567 10603 10627 10619 10653 10678 10677 10688 10688 10692 10700 10714
10540 10538 10536 10533 10531 10530 10527 10523 10518 10514 10509 10501 10495 10489 10478 10468 10457 10444 10433 10427 10416 10411 10412 10416 10425 10431 10446 10459 10470 10487 10486 10514 10519 10532 10554 10581 10594 10622 10642 10659 10662 10665 10669 10682 10689
10531 10529 10527 10524 10522 10519 10516 10512 10507 10501 10495 10489 10484 10477 10466 10455 10443 10433 10423 10413 10406 10400 10398 10401 10404 10408 10417 10428 10447 10457 10471 10482 10491 10505 10518 10553 10573 10600 10614 10635 10638 10637 10643 10653 10661
10523 10521 10519 10515 10511 10508 10505 10500 10496 10490 10483 10478 10473 10466 10455 10444 10434 10423 10414 10407 10397 10393 10388 10388 10389 10393 10402 10411 10427 10438 10458 10464 10470 10479 10491 10524 10540 10569 10582 10599 10612 10624 10626 10625 10638
10514 10513 10510 10507 10503 10498 10494 10489 10485 10480 10473 10469 10463 10455 10445 10437 10425 10416 10406 10399 10390 10384 10382 10379 10378 10379 10387 10389 10406 10416 10431 10429 10440 10462 10470 10494 10519 10533 10543 10560 10586 10598 10600 10596 10597
10503 10504 10503 10499 10494 10490 10484 10480 10472 10468 10463 10458 10453 10445 10437 10431 10421 10410 10400 10392 10385 10378 10374 10371 10371 10366 10372 10375 10380 10391 10396 10403 10410 10429 10444 10460 10487 10504 10526 10537 10540 10540 10545 10567 10569
10491 10491 10493 10491 10487 10481 10475 10470 10465 10456 10452 10446 10443 10436 10428 10422 10416 10408 10396 10388 10381 10373 10367 10363 10363 10360 10359 10364 10367 10377 10376 10382 10392 10404 10419 10423 10448 10472 10481 10488 10503 10511 10526 10545 10553
10478 10478 10478 10480 10477 10474 10467 10463 10456 10452 10445 10438 10433 10429 10422 10416 10406 10401 10393 10382 10375 10368 10363 10357 10356 10353 10350 10349 10352 10363 10374 10374 10380 10394 10397 10415 10426 10447 10460 10476 10491 10492 10507 10530 10544
10466 10466 10464 10467 10466 10462 10459 10455 10448 10444 10437 10430 10426 10421 10415 10410 10403 10396 10387 10379 10371 10363 10358 10354 10348 10343 10339 10342 10340 10346 10350 10353 10355 10366 10370 10386 10398 10416 10435 10454 10471 10472 10480 10498 10504
10454 10454 10452 10451 10454 10453 10450 10447 10440 10435 10429 10422 10417 10411 10407 10402 10396 10388 10383 10373 10364 10357 10351 10349 10346 10337 10330 10334 10332 10323 10319 10329 10335 10337 10340 10354 10373 10380 10391 10411 10421 10432 10437 10450 10457